Time,TemperatureF,DewpointF,PressureIn,WindDirection,WindDirectionDegrees,WindSpeedMPH,WindSpeedGustMPH,Humidity,HourlyPrecipIn,Conditions,Clouds,dailyrainin,SoftwareType,DateUTC
2013-01-11 00:03:00,50.0,36.0,30.35,SE,128,0.0,5.0,59,0.00,,,0.00,,2013-01-11 05:03:00,
2013-01-11 00:13:00,50.0,36.0,30.35,SE,128,0.0,5.0,59,0.00,,,0.00,,2013-01-11 05:13:00,
2013-01-11 00:22:00,50.0,36.0,30.37,ESE,111,1.0,3.0,59,0.00,,,0.00,,2013-01-11 05:22:00,
2013-01-11 00:33:00,50.0,35.0,30.36,ESE,122,0.0,4.0,57,0.00,,,0.00,,2013-01-11 05:33:00,
2013-01-11 00:43:00,50.0,35.0,30.36,ESE,122,0.0,4.0,57,0.00,,,0.00,,2013-01-11 05:43:00,
2013-01-11 00:53:00,49.0,34.0,30.35,ESE,102,1.0,3.0,56,0.00,,,0.00,,2013-01-11 05:53:00,
2013-01-11 01:03:00,49.0,34.0,30.34,ENE,72,0.0,6.0,55,0.00,,,0.00,,2013-01-11 06:03:00,
2013-01-11 01:12:00,49.0,34.0,30.34,ENE,72,0.0,6.0,55,0.00,,,0.00,,2013-01-11 06:12:00,
2013-01-11 01:22:00,49.0,33.0,30.34,ESE,123,0.0,6.0,54,0.00,,,0.00,,2013-01-11 06:22:00,
2013-01-11 01:32:00,49.0,33.0,30.32,SSE,147,1.0,4.0,54,0.00,,,0.00,,2013-01-11 06:32:00,
2013-01-11 01:42:00,49.0,33.0,30.32,SSE,147,1.0,4.0,54,0.00,,,0.00,,2013-01-11 06:42:00,
2013-01-11 01:52:00,49.0,33.0,30.32,ENE,68,1.0,4.0,54,0.00,,,0.00,,2013-01-11 06:52:00,
2013-01-11 02:02:00,49.0,32.0,30.31,East,84,0.0,4.0,52,0.00,,,0.00,,2013-01-11 07:02:00,
2013-01-11 02:12:00,49.0,32.0,30.31,ENE,73,0.0,4.0,52,0.00,,,0.00,,2013-01-11 07:12:00,
2013-01-11 02:22:00,49.0,32.0,30.31,ENE,73,0.0,4.0,52,0.00,,,0.00,,2013-01-11 07:22:00,
2013-01-11 02:32:00,49.0,32.0,30.31,East,91,0.0,5.0,52,0.00,,,0.00,,2013-01-11 07:32:00,
2013-01-11 02:42:00,49.0,31.0,30.31,East,81,0.0,6.0,50,0.00,,,0.00,,2013-01-11 07:42:00,
2013-01-11 02:52:00,49.0,31.0,30.31,East,81,0.0,6.0,50,0.00,,,0.00,,2013-01-11 07:52:00,
2013-01-11 03:02:00,49.0,31.0,30.31,ESE,111,0.0,3.0,50,0.00,,,0.00,,2013-01-11 08:02:00,
2013-01-11 03:12:00,49.0,32.0,30.30,ENE,70,0.0,10.0,51,0.00,,,0.00,,2013-01-11 08:12:00,
2013-01-11 03:22:00,49.0,32.0,30.30,ENE,70,0.0,10.0,51,0.00,,,0.00,,2013-01-11 08:22:00,
2013-01-11 03:32:00,49.0,32.0,30.29,ESE,116,0.0,5.0,51,0.00,,,0.00,,2013-01-11 08:32:00,
2013-01-11 03:42:00,49.0,32.0,30.29,ESE,116,0.0,5.0,51,0.00,,,0.00,,2013-01-11 08:42:00,
2013-01-11 03:53:00,49.0,32.0,30.29,East,89,1.0,4.0,52,0.00,,,0.00,,2013-01-11 08:53:00,
2013-01-11 04:02:00,49.0,32.0,30.29,SSE,151,1.0,4.0,52,0.00,,,0.00,,2013-01-11 09:02:00,
2013-01-11 04:12:00,49.0,32.0,30.29,SSE,151,1.0,4.0,52,0.00,,,0.00,,2013-01-11 09:12:00,
2013-01-11 04:23:00,49.0,33.0,30.28,SSE,159,0.0,4.0,54,0.00,,,0.00,,2013-01-11 09:23:00,
2013-01-11 04:32:00,49.0,33.0,30.27,SE,140,2.0,7.0,53,0.00,,,0.00,,2013-01-11 09:32:00,
2013-01-11 04:42:00,49.0,33.0,30.27,SE,140,2.0,7.0,53,0.00,,,0.00,,2013-01-11 09:42:00,
2013-01-11 04:52:00,48.0,32.0,30.26,East,82,0.0,3.0,54,0.00,,,0.00,,2013-01-11 09:52:00,
2013-01-11 05:02:00,48.0,32.0,30.25,East,79,1.0,3.0,54,0.00,,,0.00,,2013-01-11 10:02:00,
2013-01-11 05:12:00,48.0,32.0,30.25,East,79,1.0,3.0,54,0.00,,,0.00,,2013-01-11 10:12:00,
2013-01-11 05:22:00,48.0,32.0,30.25,ENE,70,0.0,7.0,54,0.00,,,0.00,,2013-01-11 10:22:00,
2013-01-11 05:32:00,48.0,33.0,30.25,ESE,104,0.0,3.0,55,0.00,,,0.00,,2013-01-11 10:32:00,
2013-01-11 05:42:00,48.0,33.0,30.25,ESE,104,0.0,3.0,55,0.00,,,0.00,,2013-01-11 10:42:00,
2013-01-11 05:53:00,47.0,35.0,30.25,East,81,0.0,0.0,63,0.00,,,0.00,,2013-01-11 10:53:00,
2013-01-11 06:03:00,46.0,39.0,30.25,East,81,0.0,1.0,75,0.00,,,0.00,,2013-01-11 11:03:00,
2013-01-11 06:12:00,46.0,39.0,30.25,East,81,0.0,1.0,75,0.00,,,0.00,,2013-01-11 11:12:00,
2013-01-11 06:22:00,45.0,40.0,30.26,East,81,0.0,1.0,81,0.01,,,0.01,,2013-01-11 11:22:00,
2013-01-11 06:33:00,44.0,40.0,30.27,East,81,0.0,1.0,85,0.04,,,0.04,,2013-01-11 11:33:00,
2013-01-11 06:42:00,44.0,40.0,30.27,East,81,0.0,1.0,85,0.04,,,0.04,,2013-01-11 11:42:00,
2013-01-11 06:53:00,43.0,40.0,30.26,East,81,0.0,0.0,88,0.06,,,0.06,,2013-01-11 11:53:00,
2013-01-11 07:03:00,43.0,40.0,30.26,East,81,0.0,0.0,89,0.09,,,0.09,,2013-01-11 12:03:00,
2013-01-11 07:12:00,43.0,40.0,30.26,East,81,0.0,0.0,89,0.09,,,0.09,,2013-01-11 12:12:00,
2013-01-11 07:22:00,43.0,41.0,30.27,ENE,75,0.0,2.0,91,0.10,,,0.11,,2013-01-11 12:22:00,
2013-01-11 07:33:00,43.0,41.0,30.28,NE,51,1.0,2.0,92,0.11,,,0.14,,2013-01-11 12:33:00,
2013-01-11 07:42:00,43.0,41.0,30.28,NE,51,1.0,2.0,92,0.11,,,0.14,,2013-01-11 12:42:00,
2013-01-11 07:53:00,42.0,40.0,30.28,North,10,0.0,3.0,93,0.16,,,0.22,,2013-01-11 12:53:00,
2013-01-11 08:03:00,42.0,40.0,30.28,North,10,0.0,0.0,94,0.17,,,0.25,,2013-01-11 13:03:00,
2013-01-11 08:13:00,42.0,40.0,30.28,North,10,0.0,0.0,94,0.17,,,0.25,,2013-01-11 13:13:00,
2013-01-11 08:22:00,42.0,40.0,30.27,North,10,0.0,1.0,94,0.16,,,0.27,,2013-01-11 13:22:00,
2013-01-11 08:33:00,43.0,41.0,30.27,NNE,15,0.0,0.0,94,0.15,,,0.28,,2013-01-11 13:33:00,
2013-01-11 08:42:00,43.0,41.0,30.27,NNE,15,0.0,0.0,94,0.15,,,0.28,,2013-01-11 13:42:00,
2013-01-11 08:53:00,43.0,42.0,30.27,NNE,16,0.0,2.0,95,0.06,,,0.28,,2013-01-11 13:53:00,
2013-01-11 09:03:00,43.0,42.0,30.26,NNE,17,0.0,3.0,95,0.05,,,0.29,,2013-01-11 14:03:00,
2013-01-11 09:12:00,43.0,42.0,30.26,NNE,17,0.0,3.0,95,0.05,,,0.29,,2013-01-11 14:12:00,
2013-01-11 09:23:00,43.0,42.0,30.26,NNW,339,0.0,0.0,95,0.03,,,0.30,,2013-01-11 14:23:00,
2013-01-11 09:33:00,43.0,42.0,30.26,NNW,339,0.0,2.0,96,0.02,,,0.30,,2013-01-11 14:33:00,
2013-01-11 09:43:00,44.0,43.0,30.26,NNW,343,0.0,2.0,96,0.04,,,0.32,,2013-01-11 14:43:00,
2013-01-11 09:53:00,44.0,43.0,30.26,NNW,343,0.0,2.0,96,0.04,,,0.32,,2013-01-11 14:53:00,
2013-01-11 10:03:00,44.0,43.0,30.26,NNW,343,1.0,2.0,96,0.05,,,0.34,,2013-01-11 15:03:00,
2013-01-11 10:13:00,44.0,43.0,30.26,NNW,343,0.0,1.0,96,0.05,,,0.35,,2013-01-11 15:13:00,
2013-01-11 10:23:00,44.0,43.0,30.26,NNW,343,0.0,1.0,96,0.05,,,0.35,,2013-01-11 15:23:00,
2013-01-11 10:33:00,44.0,43.0,30.25,NNW,344,0.0,2.0,96,0.05,,,0.35,,2013-01-11 15:33:00,
2013-01-11 10:43:00,44.0,43.0,30.25,NNW,344,0.0,2.0,96,0.05,,,0.35,,2013-01-11 15:43:00,
2013-01-11 10:53:00,45.0,44.0,30.24,NNW,344,0.0,0.0,96,0.03,,,0.35,,2013-01-11 15:53:00,
2013-01-11 11:03:00,45.0,44.0,30.24,NNW,344,0.0,0.0,96,0.01,,,0.35,,2013-01-11 16:03:00,
2013-01-11 11:12:00,45.0,44.0,30.24,NNW,344,0.0,1.0,96,0.00,,,0.35,,2013-01-11 16:12:00,
2013-01-11 11:23:00,45.0,44.0,30.24,NNW,344,0.0,1.0,96,0.00,,,0.35,,2013-01-11 16:23:00,
2013-01-11 11:33:00,46.0,45.0,30.23,NNW,344,0.0,1.0,96,0.00,,,0.35,,2013-01-11 16:33:00,
2013-01-11 11:43:00,46.0,45.0,30.23,NNW,344,0.0,1.0,96,0.00,,,0.35,,2013-01-11 16:43:00,
2013-01-11 11:53:00,46.0,45.0,30.22,NNE,18,0.0,2.0,96,0.00,,,0.35,,2013-01-11 16:53:00,
2013-01-11 12:03:00,47.0,46.0,30.20,NNE,18,1.0,2.0,96,0.00,,,0.35,,2013-01-11 17:03:00,
2013-01-11 12:12:00,48.0,47.0,30.20,NNE,18,0.0,1.0,96,0.00,,,0.35,,2013-01-11 17:12:00,
2013-01-11 12:22:00,48.0,47.0,30.20,NNE,18,0.0,1.0,96,0.00,,,0.35,,2013-01-11 17:22:00,
2013-01-11 12:33:00,48.0,47.0,30.18,East,81,0.0,1.0,96,0.00,,,0.35,,2013-01-11 17:33:00,
2013-01-11 12:43:00,48.0,47.0,30.18,East,81,0.0,1.0,96,0.00,,,0.35,,2013-01-11 17:43:00,
2013-01-11 12:53:00,49.0,48.0,30.17,East,81,0.0,0.0,96,0.00,,,0.35,,2013-01-11 17:53:00,
2013-01-11 13:03:00,49.0,48.0,30.17,East,81,0.0,0.0,95,0.00,,,0.35,,2013-01-11 18:03:00,
2013-01-11 13:13:00,49.0,48.0,30.17,East,81,0.0,0.0,95,0.00,,,0.35,,2013-01-11 18:13:00,
2013-01-11 13:23:00,49.0,48.0,30.17,East,81,0.0,0.0,95,0.00,,,0.35,,2013-01-11 18:23:00,
2013-01-11 13:33:00,49.0,48.0,30.15,East,81,0.0,1.0,95,0.00,,,0.35,,2013-01-11 18:33:00,
2013-01-11 13:43:00,49.0,48.0,30.15,East,81,0.0,1.0,95,0.00,,,0.35,,2013-01-11 18:43:00,
2013-01-11 13:53:00,50.0,49.0,30.14,ESE,118,0.0,2.0,95,0.00,,,0.35,,2013-01-11 18:53:00,
2013-01-11 14:03:00,50.0,48.0,30.14,SSE,153,0.0,1.0,94,0.00,,,0.35,,2013-01-11 19:03:00,
2013-01-11 14:12:00,50.0,48.0,30.14,SSE,153,0.0,1.0,94,0.00,,,0.35,,2013-01-11 19:12:00,
2013-01-11 14:22:00,51.0,49.0,30.14,SSE,153,0.0,1.0,94,0.00,,,0.35,,2013-01-11 19:22:00,
2013-01-11 14:33:00,51.0,49.0,30.13,SSE,156,0.0,3.0,94,0.00,,,0.35,,2013-01-11 19:33:00,
2013-01-11 14:43:00,51.0,49.0,30.13,SSE,156,0.0,3.0,94,0.00,,,0.35,,2013-01-11 19:43:00,
2013-01-11 14:54:00,51.0,49.0,30.12,SSE,156,0.0,2.0,94,0.00,,,0.35,,2013-01-11 19:54:00,
2013-01-11 15:03:00,52.0,50.0,30.12,South,172,0.0,3.0,94,0.00,,,0.35,,2013-01-11 20:03:00,
2013-01-11 15:12:00,52.0,50.0,30.12,South,172,0.0,3.0,94,0.00,,,0.35,,2013-01-11 20:12:00,
2013-01-11 15:22:00,52.0,50.0,30.12,South,171,0.0,2.0,94,0.00,,,0.35,,2013-01-11 20:22:00,
2013-01-11 15:33:00,52.0,50.0,30.11,South,179,0.0,2.0,94,0.00,,,0.35,,2013-01-11 20:33:00,
2013-01-11 15:43:00,52.0,50.0,30.11,South,179,0.0,2.0,94,0.00,,,0.35,,2013-01-11 20:43:00,
2013-01-11 15:53:00,53.0,51.0,30.12,South,179,0.0,0.0,94,0.00,,,0.35,,2013-01-11 20:53:00,
2013-01-11 16:03:00,53.0,52.0,30.12,South,179,0.0,0.0,95,0.00,,,0.35,,2013-01-11 21:03:00,
2013-01-11 16:12:00,52.0,51.0,30.11,South,173,0.0,2.0,96,0.00,,,0.35,,2013-01-11 21:12:00,
2013-01-11 16:23:00,52.0,51.0,30.11,South,173,0.0,2.0,96,0.00,,,0.35,,2013-01-11 21:23:00,
2013-01-11 16:33:00,53.0,52.0,30.11,SSE,162,0.0,2.0,96,0.01,,,0.36,,2013-01-11 21:33:00,
2013-01-11 16:42:00,53.0,52.0,30.11,SSE,162,0.0,2.0,96,0.01,,,0.36,,2013-01-11 21:42:00,
2013-01-11 16:53:00,53.0,52.0,30.11,SSE,160,0.0,3.0,96,0.01,,,0.36,,2013-01-11 21:53:00,
2013-01-11 17:03:00,53.0,52.0,30.10,SSE,160,0.0,3.0,96,0.01,,,0.36,,2013-01-11 22:03:00,
2013-01-11 17:12:00,53.0,52.0,30.10,SSE,160,0.0,1.0,97,0.01,,,0.36,,2013-01-11 22:12:00,
2013-01-11 17:22:00,53.0,52.0,30.10,SSE,160,0.0,1.0,97,0.01,,,0.36,,2013-01-11 22:22:00,
2013-01-11 17:33:00,53.0,52.0,30.09,SSE,160,0.0,2.0,97,0.00,,,0.36,,2013-01-11 22:33:00,
2013-01-11 17:42:00,53.0,52.0,30.09,SSE,160,0.0,2.0,97,0.00,,,0.36,,2013-01-11 22:42:00,
2013-01-11 17:53:00,53.0,52.0,30.11,SSE,160,0.0,1.0,97,0.00,,,0.36,,2013-01-11 22:53:00,
2013-01-11 18:02:00,53.0,52.0,30.11,SSE,160,0.0,0.0,97,0.00,,,0.36,,2013-01-11 23:02:00,
2013-01-11 18:13:00,53.0,52.0,30.11,SSE,160,0.0,0.0,97,0.00,,,0.36,,2013-01-11 23:13:00,
2013-01-11 18:23:00,53.0,52.0,30.10,SSE,160,0.0,0.0,98,0.00,,,0.36,,2013-01-11 23:23:00,
2013-01-11 18:32:00,53.0,52.0,30.10,SSE,160,0.0,0.0,98,0.00,,,0.36,,2013-01-11 23:32:00,
2013-01-11 18:43:00,53.0,52.0,30.10,SSE,160,0.0,0.0,98,0.00,,,0.36,,2013-01-11 23:43:00,
2013-01-11 18:53:00,53.0,52.0,30.11,SSE,160,0.0,0.0,98,0.00,,,0.36,,2013-01-11 23:53:00,
2013-01-11 19:02:00,53.0,52.0,30.11,SSE,160,0.0,0.0,98,0.00,,,0.36,,2013-01-12 00:02:00,
2013-01-11 19:12:00,53.0,52.0,30.10,SSE,160,0.0,0.0,98,0.00,,,0.36,,2013-01-12 00:12:00,
2013-01-11 19:23:00,53.0,52.0,30.10,SSE,160,0.0,0.0,98,0.00,,,0.36,,2013-01-12 00:23:00,
2013-01-11 19:33:00,53.0,52.0,30.09,SSE,160,0.0,0.0,98,0.00,,,0.36,,2013-01-12 00:33:00,
2013-01-11 19:43:00,53.0,52.0,30.09,SSE,160,0.0,0.0,98,0.00,,,0.36,,2013-01-12 00:43:00,
2013-01-11 19:53:00,52.0,51.0,30.09,SSE,160,0.0,1.0,98,0.00,,,0.36,,2013-01-12 00:53:00,
2013-01-11 20:02:00,52.0,51.0,30.10,SSE,160,0.0,0.0,98,0.00,,,0.36,,2013-01-12 01:02:00,
2013-01-11 20:12:00,52.0,51.0,30.10,SSE,160,0.0,0.0,98,0.00,,,0.36,,2013-01-12 01:12:00,
2013-01-11 20:22:00,52.0,51.0,30.10,SSE,160,0.0,2.0,98,0.00,,,0.36,,2013-01-12 01:22:00,
2013-01-11 20:33:00,51.0,50.0,30.09,SSE,160,0.0,1.0,98,0.00,,,0.36,,2013-01-12 01:33:00,
2013-01-11 20:43:00,51.0,50.0,30.09,SSE,160,0.0,1.0,98,0.00,,,0.36,,2013-01-12 01:43:00,
2013-01-11 20:53:00,51.0,50.0,30.09,SSE,160,0.0,0.0,98,0.00,,,0.36,,2013-01-12 01:53:00,
2013-01-11 21:02:00,51.0,50.0,30.09,SSE,160,0.0,0.0,98,0.00,,,0.36,,2013-01-12 02:02:00,
2013-01-11 21:12:00,51.0,50.0,30.09,SSE,160,0.0,0.0,98,0.00,,,0.36,,2013-01-12 02:12:00,
2013-01-11 21:22:00,51.0,50.0,30.09,SSE,160,0.0,0.0,98,0.00,,,0.36,,2013-01-12 02:22:00,
2013-01-11 21:33:00,51.0,50.0,30.10,SSE,160,0.0,0.0,98,0.00,,,0.36,,2013-01-12 02:33:00,
2013-01-11 21:43:00,51.0,50.0,30.10,SSE,160,0.0,0.0,98,0.00,,,0.36,,2013-01-12 02:43:00,
2013-01-11 21:53:00,51.0,50.0,30.10,SSE,166,0.0,3.0,98,0.00,,,0.36,,2013-01-12 02:53:00,
2013-01-11 22:03:00,51.0,50.0,30.09,WNW,290,1.0,3.0,98,0.00,,,0.36,,2013-01-12 03:03:00,
2013-01-11 22:12:00,51.0,50.0,30.09,WNW,290,1.0,3.0,98,0.00,,,0.36,,2013-01-12 03:12:00,
2013-01-11 22:22:00,50.0,49.0,30.09,WNW,290,0.0,0.0,98,0.00,,,0.36,,2013-01-12 03:22:00,
2013-01-11 22:33:00,50.0,49.0,30.09,WNW,290,0.0,0.0,98,0.00,,,0.36,,2013-01-12 03:33:00,
2013-01-11 22:43:00,50.0,49.0,30.09,WNW,290,0.0,0.0,98,0.00,,,0.36,,2013-01-12 03:43:00,
2013-01-11 22:53:00,50.0,50.0,30.09,WNW,290,0.0,0.0,99,0.00,,,0.36,,2013-01-12 03:53:00,
2013-01-11 23:02:00,50.0,50.0,30.08,WNW,290,0.0,0.0,99,0.00,,,0.36,,2013-01-12 04:02:00,
2013-01-11 23:12:00,50.0,50.0,30.08,WNW,290,0.0,0.0,99,0.00,,,0.36,,2013-01-12 04:12:00,
2013-01-11 23:22:00,50.0,50.0,30.08,WNW,290,0.0,1.0,99,0.00,,,0.36,,2013-01-12 04:22:00,
2013-01-11 23:32:00,50.0,50.0,30.07,WNW,290,0.0,0.0,99,0.00,,,0.36,,2013-01-12 04:32:00,
2013-01-11 23:42:00,50.0,50.0,30.07,WNW,290,0.0,0.0,99,0.00,,,0.36,,2013-01-12 04:42:00,
2013-01-11 23:52:00,50.0,50.0,30.08,WNW,290,0.0,2.0,99,0.00,,,0.36,,2013-01-12 04:52:00,